Regional Weather Roundup
Issued by NWS

Home | Current Version | Previous Version | Graphics & Text | Print | Product List | Glossary On
Versions: 1 2 3 4 5 6 7 8 9 10 11 12 13 14 15 16 17 18 19 20 21 22 23 24 25 26 27 28 29 30 31 32 33 34 35 36 37 38 39 40 41 42 43 44 45 46 47 48 49 50
344
ASUS45 KSLC 261610
RWRUT

UTAH REGIONAL WEATHER ROUNDUP
NATIONAL WEATHER SERVICE SALT LAKE CITY UT
1000 AM MDT FRI AUG 26 2016

UTZ001>011-023>025-261700-

NORTHERN UTAH

CITY           SKY/WX    TMP DP  RH WIND       PRES   REMARKS
BRIGHAM CITY     N/A     67  32  27 CALM      30.06S
HILL AFB       SUNNY     67  35  30 SE10      30.07S
LOGAN          SUNNY     61  36  39 N5        30.07S
OGDEN          SUNNY     70  37  29 VRB5      30.05S
PROVO AIRPORT  MOSUNNY   70  43  37 E7        30.09S
SALT LAKE CITY MOSUNNY   74  42  31 S16       30.03S
VERNAL         SUNNY     60  43  53 VRB3      30.20S
WENDOVER       SUNNY     66  34  30 SE6       30.05S
HEBER CITY     SUNNY     61  37  41 CALM      30.13F
WEST JORDAN    SUNNY     70  43  37 S17G25    30.07S

$$

UTZ012>022-026-027-261700-

SOUTHERN/CENTRAL UTAH

CITY           SKY/WX    TMP DP  RH WIND       PRES   REMARKS
BLANDING       SUNNY     60  50  71 CALM      30.34S
BRYCE CANYON   SUNNY     58  45  62 W6        30.32S
CEDAR CITY     MOSUNNY   67  48  50 SW15      30.17S
MILFORD        SUNNY     68  46  45 S22       30.12R
MOAB/CYNLANDS  SUNNY     67  47  48 SE7       30.18R
PRICE          SUNNY     61  44  53 SE7       30.23S
ST GEORGE      SUNNY     75  52  43 E12       30.09S

$$

REGIONAL REPORTS     COLORADO/ARIZONA

CITY           SKY/WX    TMP DP  RH WIND       PRES   REMARKS
CRAIG, CO      SUNNY     63  39  41 E8        30.24S
GRAND JUNCTION SUNNY     63  48  58 SE9       30.21S
RIFLE          SUNNY     57  49  74 CALM      30.25F
MONTROSE       SUNNY     59  47  64 CALM      30.27F
CORTEZ         CLOUDY    59  51  75 CALM      30.28R
PAGE, AZ       SUNNY     68  56  65 NE6       30.18S
GRAND CANYON     N/A     60  50  69 E5        30.30S
KINGMAN        MOSUNNY   79  53  40 E23       30.07R
FLAGSTAFF      SUNNY     58  50  75 VRB3      30.33S

$$

REGIONAL REPORTS    NEVADA/IDAHO/WYOMING

CITY           SKY/WX    TMP DP  RH WIND       PRES   REMARKS
LAS VEGAS, NV  MOSUNNY   85  48  27 NE8       29.94S
ELY            SUNNY     66  39  37 S12       30.16S
ELKO           SUNNY     60  23  24 CALM      30.11F
POCATELLO, ID  CLOUDY    57  38  48 SW3       30.07S
BURLEY         MOSUNNY   58  42  55 CALM      30.05S
EVANSTON, WY   MOSUNNY   60  33  36 SE5       30.20F
ROCK SPRINGS   SUNNY     58  37  45 CALM      30.21S

$$




USA.gov is the U.S. government's official web portal to all federal, state and local government web resources and services.